Tracking 28126 objects as of 1-Oct-2023
HD Live streaming from Space Station
objects crossing your sky now

COSMOS 839 DEB

Track COSMOS 839 DEB now!
10-day predictions


NORAD ID: 14919
Int'l Code: 1976-067BG
Perigee: 986.8 km
Apogee: 2,123.1 km
Inclination: 65.8 °
Period: 117.0 minutes
Semi major axis: 7925 km
RCS: 0.0133 m2 (small)
Launch date: July 8, 1976
Source: Commonwealth of Independent States (former USSR) (CIS)
Launch site: PLESETSK MISSILE AND SPACE COMPLEX (PKMTR)

Note: This is SATELLITE DEBRIS
Your satellite tracking list
Your tracking list is empty




NASA's NSSDC Master Catalog

Two Line Element Set (TLE):
1 14919U 76067BG  23273.90601986 -.00000040  00000-0  47646-4 0  9992
2 14919  65.8030  92.5597 0716839 110.0029   4.8799 12.30348904440146
Source of the keplerian elements: AFSPC